Flag for Switzerland Weather past 2 weeks in Ostermundigen, Bern, Switzerland

57 °F

Light rain. Broken clouds.

Feels Like: 55 °F
Forecast: 46 / 57 °F
Wind: 8 mph from Southeast

Location: Bern / Belp

Current Time: Oct 6, 2015 at 5:06:58 PM

Latest Report: Oct 6, 2015 at 4:20 PM

Visibility: N/A

Pressure: 29.80 "Hg (27.89 "Hg at 556m altitude)

Humidity: 100%

Dew point: 57 °F

Location of OstermundigenLocation

Historic Weather in Ostermundigen — Graph


Ostermundigen temperature yesterday

Maximum temperature yesterday: 68 °F (at 2:50 PM)
Minimum temperature yesterday: 48 °F (at 12:20 AM)
Average temperature yesterday: 57 °F

Past Weeks' High & Low Weather Summary

High68 °F (Oct 5, 2:50 PM)100% (Sep 21, 8:50 PM)30.39 "Hg (Sep 21, 8:50 PM)
Low34 °F (Sep 29, 7:20 AM)49% (Sep 24, 4:20 PM)29.68 "Hg (Sep 22, 6:50 PM)
Average52 °F85%30.10 "Hg
* Reported Sep 21 3:20 PM — Oct 6 3:50 PM, Ostermundigen, Weather by CustomWeather, © 2015

Note: Actual official high and low records may vary slightly from our data, if they occured in-between our weather recording intervals... More about our weather records


Ostermundigen weather history for previous 24 hours

Time TempWeatherWind HumidityBarometerVisibility
3:50 PM
Tue, Oct 6
57 °FRain. Partly sunny.7 mph100%29.83 "Hg4 mi
3:20 PM59 °FRain. More clouds than sun.6 mph100%29.83 "Hg3 mi
2:50 PM59 °FLight rain. Overcast.3 mph94%29.83 "HgN/A
2:20 PM61 °FLight rain. Broken clouds.3 mph94%29.83 "HgN/A
1:50 PM59 °FLight rain. Broken clouds.3 mph100%29.83 "Hg3 mi
1:20 PM61 °FRain showers. Broken clouds.7 mph94%29.80 "Hg4 mi
12:50 PM61 °FPartly sunny.6 mph94%29.77 "Hg4 mi
12:20 PM59 °FBroken clouds.5 mph94%29.77 "Hg4 mi
11:50 AM59 °FBroken clouds.6 mph94%29.77 "HgN/A
11:20 AM59 °FLow clouds.No wind94%29.77 "Hg3 mi
10:50 AM59 °FPartly sunny.3 mph94%29.77 "Hg3 mi
10:20 AM57 °FBroken clouds.1 mph100%29.77 "Hg4 mi
9:50 AM57 °FFog.2 mph100%29.77 "Hg1 mi
9:20 AM55 °FFog.2 mph100%29.77 "Hg1 mi
8:50 AM55 °FFog.2 mph100%29.77 "Hg1 mi
8:20 AM55 °FFog.1 mph100%29.80 "Hg0 mi
7:50 AM54 °FFog.1 mph100%29.80 "Hg1 mi
7:20 AM54 °FFog.1 mph100%29.80 "Hg0 mi
6:20 AM54 °FFog.3 mph100%29.80 "Hg0 mi
5:50 AM54 °FFog.5 mph100%29.80 "Hg0 mi
5:20 AM55 °FFog.2 mph100%29.83 "Hg0 mi
4:50 AM54 °FFog.2 mph100%29.83 "Hg2 mi
4:20 AM55 °FFog.2 mph100%29.83 "Hg1 mi
3:50 AM55 °FFog.3 mph100%29.83 "Hg3 mi
3:20 AM55 °FFog.5 mph100%29.83 "Hg1 mi
2:50 AM55 °FFog.1 mph100%29.86 "Hg1 mi
2:20 AM55 °FFog.1 mph100%29.86 "Hg1 mi
1:50 AM55 °FFog.2 mph100%29.86 "Hg2 mi
1:20 AM55 °FFog.2 mph100%29.86 "Hg1 mi
12:50 AM54 °FFog.1 mph100%29.86 "Hg0 mi
11:20 PM
Mon, Oct 5
55 °FFog.3 mph100%29.89 "Hg2 mi
10:50 PM57 °FFog.3 mph100%29.89 "Hg6 mi
10:20 PM57 °FPassing clouds.3 mph100%29.92 "HgN/A
9:50 PM59 °FOvercast.2 mph94%29.89 "HgN/A
9:20 PM59 °FSprinkles. Passing clouds.2 mph94%29.89 "Hg4 mi
8:50 PM59 °FPartly cloudy.6 mph100%29.89 "Hg6 mi
8:20 PM59 °FPartly cloudy.5 mph100%29.89 "Hg6 mi
7:50 PM59 °FRain showers. Partly sunny.2 mph100%29.89 "Hg6 mi
7:20 PM59 °FRain showers. Partly sunny.2 mph100%29.89 "Hg6 mi
6:50 PM61 °FRain showers. Partly sunny.5 mph94%29.89 "Hg6 mi
6:20 PM61 °FPartly sunny.2 mph94%29.89 "HgN/A
5:50 PM61 °FPartly sunny.1 mph100%29.89 "HgN/A
5:20 PM61 °FSprinkles. Partly sunny.1 mph88%29.92 "HgN/A
Weather by CustomWeather, © 2015

See weather overviewHow to use our weather pages